FW4170 Weather Reports


Display with metric or nautical units.
time (UTC)temp
F
wind
direction
speed
MPH
gust
MPH
rain 1hr
in
rain 24hr
in
rain mn
in
humidity
%
barometer
mb
20191017041511 49 63 1.0 4.0 0.00 0.00 0.00 76 1025.0
20191017041011 49 90 1.0 3.0 0.00 0.00 0.00 76 1025.0
20191017040510 49 67 0.0 2.0 0.00 0.00 0.00 77 1025.0
20191017040011 49 62 1.0 4.0 0.00 0.00 0.00 77 1025.0
20191017035510 49 66 1.0 4.0 0.00 0.00 0.00 77 1025.0
20191017035011 49 74 2.0 4.0 0.00 0.00 0.00 77 1024.9
20191017034511 49 121 1.0 3.0 0.00 0.00 0.00 77 1025.0
20191017034011 49 138 1.0 3.0 0.00 0.00 0.00 77 1025.1
20191017033511 49 108 1.0 4.0 0.00 0.00 0.00 77 1025.0
20191017033011 49 79 2.0 5.0 0.00 0.00 0.00 77 1024.9
20191017032510 49 67 3.0 7.0 0.00 0.00 0.00 77 1024.9
20191017032011 49 65 2.0 7.0 0.00 0.00 0.00 77 1025.0
20191017031511 49 62 1.0 4.0 0.00 0.00 0.00 76 1024.9
20191017031011 49 72 0.0 2.0 0.00 0.00 0.00 76 1024.9
20191017030511 49 59 1.0 2.0 0.00 0.00 0.00 76 1024.8
20191017030011 49 64 1.0 4.0 0.00 0.00 0.00 76 1024.9
20191017025511 49 81 1.0 4.0 0.00 0.00 0.00 76 1024.9
20191017025011 49 83 2.0 4.0 0.00 0.00 0.00 76 1024.9
20191017024511 49 67 3.0 4.0 0.00 0.00 0.00 76 1024.8
20191017024011 49 72 2.0 4.0 0.00 0.00 0.00 76 1024.9
20191017023511 49 88 2.0 4.0 0.00 0.00 0.00 76 1024.9
20191017023011 49 98 3.0 4.0 0.00 0.00 0.00 76 1024.8
20191017022511 49 108 2.0 4.0 0.00 0.00 0.00 76 1024.9
20191017022011 49 121 3.0 5.0 0.00 0.00 0.00 77 1024.9
20191017021511 49 127 3.0 5.0 0.00 0.00 0.00 77 1024.9
20191017021011 50 128 2.0 3.0 0.00 0.00 0.00 77 1024.8
20191017020510 50 123 2.0 3.0 0.00 0.00 0.00 77 1024.7
20191017020011 50 104 1.0 3.0 0.00 0.00 0.00 77 1024.8
20191017015511 50 80 1.0 3.0 0.00 0.00 0.00 77 1024.8
20191017015011 50 70 1.0 4.0 0.00 0.00 0.00 77 1024.8
20191017014511 50 86 1.0 4.0 0.00 0.00 0.00 77 1024.8
20191017014011 50 116 1.0 3.0 0.00 0.00 0.00 77 1024.8
20191017013511 50 120 1.0 3.0 0.00 0.00 0.00 78 1024.8
20191017013010 50 111 0.0 2.0 0.00 0.00 0.00 78 1024.7
20191017012511 50 117 1.0 3.0 0.00 0.00 0.00 78 1024.7
20191017012011 50 98 1.0 4.0 0.00 0.00 0.00 78 1024.7
20191017011510 50 87 1.0 4.0 0.00 0.00 0.00 78 1024.7
20191017011011 51 90 0.0 2.0 0.00 0.00 0.00 78 1024.6
20191017010511 51 77 0.0 2.0 0.00 0.00 0.00 78 1024.7
20191017010011 51 90 1.0 3.0 0.00 0.00 0.00 77 1024.7
20191017005511 51 84 1.0 3.0 0.00 0.00 0.00 77 1024.6
20191017005011 51 62 1.0 3.0 0.00 0.00 0.00 77 1024.7
20191017004511 51 76 0.0 2.0 0.00 0.00 0.00 77 1024.7
20191017004011 51 154 0.0 2.0 0.00 0.00 0.00 76 1024.7
20191017003511 51 173 1.0 3.0 0.00 0.00 0.00 76 1024.6
20191017003011 51 133 1.0 4.0 0.00 0.00 0.00 76 1024.7
20191017002511 51 112 1.0 4.0 0.00 0.00 0.00 76 1024.7
20191017002011 51 107 1.0 4.0 0.00 0.00 0.00 76 1024.7
20191017001511 51 112 1.0 4.0 0.00 0.00 0.00 76 1024.8
20191017001011 51 101 1.0 3.0 0.00 0.00 0.00 76 1024.7
20191017000511 51 105 2.0 4.0 0.00 0.00 0.00 76 1024.7
20191017000011 51 116 2.0 4.0 0.00 0.00 0.00 76 1024.7
20191016235510 51 120 3.0 4.0 0.00 0.00 0.00 76 1024.7
20191016235011 51 120 1.0 4.0 0.00 0.00 0.00 76 1024.7
20191016234510 51 145 0.0 2.0 0.00 0.00 0.00 76 1024.6
20191016234010 51 172 0.0 2.0 0.00 0.00 0.00 76 1024.5
20191016233510 51 167 1.0 4.0 0.00 0.00 0.00 76 1024.5
20191016233011 51 181 1.0 4.0 0.00 0.00 0.00 76 1024.5
20191016232511 51 186 1.0 4.0 0.00 0.00 0.00 77 1024.4
20191016232011 52 157 1.0 3.0 0.00 0.00 0.00 77 1024.5
20191016231511 52 167 1.0 4.0 0.00 0.00 0.00 77 1024.4
20191016231011 52 189 1.0 4.0 0.00 0.00 0.00 77 1024.4
20191016230512 52 195 1.0 3.0 0.00 0.00 0.00 77 1024.4
20191016230010 52 201 0.0 2.0 0.00 0.00 0.00 77 1024.3
20191016225510 52 190 1.0 3.0 0.00 0.00 0.00 77 1024.3
20191016225011 52 202 1.0 4.0 0.00 0.00 0.00 77 1024.3
20191016224510 52 214 1.0 4.0 0.00 0.00 0.00 78 1024.2
20191016224010 52 218 0.0 3.0 0.00 0.00 0.00 78 1024.1
20191016223510 52 193 0.0 3.0 0.00 0.00 0.00 78 1024.2
20191016223010 52 170 0.0 3.0 0.00 0.00 0.00 78 1024.2
20191016222510 52 162 0.0 2.0 0.00 0.00 0.00 78 1024.2
20191016222010 52 161 1.0 3.0 0.00 0.00 0.00 79 1024.2
20191016221511 52 166 1.0 3.0 0.00 0.00 0.00 79 1024.1
20191016221011 52 150 1.0 3.0 0.00 0.00 0.00 79 1024.2
20191016220511 52 135 1.0 2.0 0.00 0.00 0.00 78 1024.2
20191016220012 52 133 1.0 2.0 0.00 0.00 0.00 78 1024.2
20191016215510 52 101 1.0 4.0 0.00 0.00 0.00 78 1024.1
20191016215010 52 116 2.0 5.0 0.00 0.00 0.00 78 1024.1
20191016214510 52 121 2.0 5.0 0.00 0.00 0.00 78 1024.1
20191016214010 52 108 2.0 3.0 0.00 0.00 0.00 78 1024.0
20191016213510 52 96 2.0 5.0 0.00 0.00 0.00 78 1024.1
20191016213010 53 76 2.0 5.0 0.00 0.00 0.00 77 1024.1
20191016212510 53 53 2.0 5.0 0.00 0.00 0.00 77 1024.1
20191016212010 53 43 2.0 4.0 0.00 0.00 0.00 77 1024.2
20191016211510 53 43 2.0 4.0 0.00 0.00 0.00 77 1024.2
20191016211010 53 34 2.0 4.0 0.00 0.00 0.00 77 1024.0
20191016210510 52 33 2.0 4.0 0.00 0.00 0.00 78 1024.0
20191016210010 52 66 1.0 4.0 0.00 0.00 0.00 77 1024.1
20191016205510 52 97 0.0 2.0 0.00 0.00 0.00 77 1024.1
20191016205010 52 342 0.0 3.0 0.00 0.00 0.00 77 1024.0
20191016204510 52 344 1.0 3.0 0.00 0.00 0.00 77 1024.0
20191016204010 52 92 0.0 2.0 0.00 0.00 0.00 77 1024.0
20191016203510 52 125 1.0 2.0 0.00 0.00 0.00 77 1023.9
20191016203010 52 134 0.0 2.0 0.00 0.00 0.00 77 1023.9
20191016202510 51 44 0.0 2.0 0.00 0.00 0.00 76 1023.9
20191016202010 51 353 0.0 1.0 0.00 0.00 0.00 76 1023.8
20191016201510 51 167 0.0 1.0 0.00 0.00 0.00 76 1023.7
20191016201010 51 173 0.0 1.0 0.00 0.00 0.00 76 1023.8
20191016200510 51 198 0.0 2.0 0.00 0.00 0.00 75 1023.8
20191016200010 51 247 0.0 2.0 0.00 0.00 0.00 75 1023.8
20191016195510 51 255 1.0 2.0 0.00 0.00 0.00 75 1023.8
20191016195010 51 256 1.0 2.0 0.00 0.00 0.00 75 1023.8
20191016194510 51 266 1.0 2.0 0.00 0.00 0.00 75 1023.8
20191016194010 51 30 0.0 2.0 0.00 0.00 0.00 75 1023.8
20191016193510 51 93 0.0 1.0 0.00 0.00 0.00 75 1023.9
20191016193010 52 199 0.0 2.0 0.00 0.00 0.00 75 1023.7
20191016192510 52 231 1.0 4.0 0.00 0.00 0.00 74 1023.8
20191016192010 52 230 3.0 4.0 0.00 0.00 0.00 74 1023.6
20191016191510 52 225 3.0 4.0 0.00 0.00 0.00 74 1023.5
20191016191010 52 236 2.0 4.0 0.00 0.00 0.00 74 1023.5
20191016190510 53 246 0.0 3.0 0.00 0.00 0.00 73 1023.4
20191016190010 53 253 0.0 2.0 0.00 0.00 0.00 73 1023.5
20191016185510 53 281 1.0 2.0 0.00 0.00 0.00 73 1023.4
20191016185011 53 295 1.0 3.0 0.00 0.00 0.00 73 1023.3
20191016184510 53 306 1.0 3.0 0.00 0.00 0.00 72 1023.4
20191016184010 53 301 0.0 3.0 0.00 0.00 0.00 72 1023.3
20191016183510 53 328 0.0 2.0 0.00 0.00 0.00 72 1023.3
20191016183010 54 325 0.0 2.0 0.00 0.00 0.00 71 1023.3
20191016182510 54 357 0.0 2.0 0.00 0.00 0.00 71 1023.2
20191016182010 54 10 1.0 3.0 0.00 0.00 0.00 71 1023.2
20191016181510 54 35 1.0 4.0 0.00 0.00 0.00 70 1023.1
20191016181010 54 45 1.0 4.0 0.00 0.00 0.00 69 1022.9
20191016180510 55 43 1.0 3.0 0.00 0.00 0.00 68 1023.0
20191016180011 55 16 1.0 3.0 0.00 0.00 0.00 68 1022.9
20191016175511 55 19 1.0 3.0 0.00 0.00 0.00 68 1022.9
20191016175011 56 87 1.0 2.0 0.00 0.00 0.00 68 1022.9
20191016174511 56 96 1.0 2.0 0.00 0.00 0.00 68 1022.8
20191016174011 56 65 1.0 2.0 0.00 0.00 0.00 68 1022.9
20191016173510 57 21 0.0 2.0 0.00 0.00 0.00 68 1022.9
20191016173010 57 346 1.0 2.0 0.00 0.00 0.00 68 1022.8
20191016172510 57 338 0.0 2.0 0.00 0.00 0.00 68 1022.7
20191016172010 57 317 0.0 2.0 0.00 0.00 0.00 67 1022.7
20191016171510 57 75 0.0 4.0 0.00 0.00 0.00 67 1022.7
20191016171010 58 64 1.0 4.0 0.00 0.00 0.00 67 1022.8
20191016170510 58 85 1.0 3.0 0.00 0.00 0.00 66 1022.8
20191016170010 58 65 2.0 4.0 0.00 0.00 0.00 66 1022.8
20191016165510 58 84 2.0 7.0 0.00 0.00 0.00 66 1022.8
20191016165010 58 97 2.0 7.0 0.00 0.00 0.00 66 1022.8
20191016164510 58 90 2.0 5.0 0.00 0.00 0.00 66 1022.7
20191016164010 58 109 2.0 5.0 0.00 0.00 0.00 66 1022.7
20191016163510 58 113 2.0 5.0 0.00 0.00 0.00 65 1022.7
20191016163010 59 123 2.0 5.0 0.00 0.00 0.00 65 1022.7
20191016162510 59 128 2.0 6.0 0.00 0.00 0.00 65 1022.6
20191016162010 59 62 3.0 6.0 0.00 0.00 0.00 64 1022.4
20191016161510 59 32 2.0 5.0 0.00 0.00 0.00 64 1022.5
20191016161010 59 13 2.0 4.0 0.00 0.00 0.00 64 1022.3
20191016160510 59 23 1.0 4.0 0.00 0.00 0.00 63 1022.3
20191016160010 59 58 2.0 4.0 0.00 0.00 0.00 63 1022.3
20191016155511 59 81 2.0 5.0 0.00 0.00 0.00 63 1022.3
20191016155011 60 97 1.0 5.0 0.00 0.00 0.00 62 1022.3
20191016154510 60 73 2.0 7.0 0.00 0.00 0.00 62 1022.2
20191016154011 60 94 2.0 7.0 0.00 0.00 0.00 61 1022.3
20191016153510 60 124 2.0 5.0 0.00 0.00 0.00 60 1022.3
20191016153010 60 114 1.0 4.0 0.00 0.00 0.00 60 1022.2
20191016152510 60 134 2.0 5.0 0.00 0.00 0.00 60 1022.2
20191016152010 60 124 3.0 8.0 0.00 0.00 0.00 60 1022.3
20191016151510 60 99 3.0 8.0 0.00 0.00 0.00 60 1022.2
20191016151010 60 96 4.0 8.0 0.00 0.00 0.00 60 1022.3
20191016150510 60 108 4.0 8.0 0.00 0.00 0.00 60 1022.1
20191016150010 60 103 4.0 8.0 0.00 0.00 0.00 59 1022.1
20191016145510 60 103 4.0 8.0 0.00 0.00 0.00 59 1022.1
20191016145010 60 112 4.0 8.0 0.00 0.00 0.00 59 1022.0
20191016144510 60 107 4.0 8.0 0.00 0.00 0.00 59 1022.1
20191016144010 60 104 3.0 7.0 0.00 0.00 0.00 59 1022.1
20191016143510 60 85 3.0 5.0 0.00 0.00 0.00 59 1022.0
20191016143010 60 65 2.0 5.0 0.00 0.00 0.00 59 1022.1
20191016142510 60 76 2.0 7.0 0.00 0.00 0.00 59 1022.1
20191016142010 60 65 3.0 8.0 0.00 0.00 0.00 59 1022.0
20191016141510 61 65 3.0 8.0 0.00 0.00 0.00 59 1022.0
20191016141010 61 82 3.0 5.0 0.00 0.00 0.00 59 1022.0
20191016140510 61 78 3.0 6.0 0.00 0.00 0.00 58 1021.9
20191016140012 61 74 3.0 6.0 0.00 0.00 0.00 58 1021.9
20191016135511 61 101 4.0 8.0 0.00 0.00 0.00 58 1021.7
20191016135010 61 119 4.0 8.0 0.00 0.00 0.00 58 1021.7
20191016134510 61 139 6.0 13.0 0.00 0.00 0.00 58 1021.8
20191016134010 61 135 6.0 13.0 0.00 0.00 0.00 58 1021.9
20191016133510 61 116 6.0 11.0 0.00 0.00 0.00 58 1022.1
20191016133010 61 112 5.0 9.0 0.00 0.00 0.00 58 1022.0
20191016132510 61 124 4.0 8.0 0.00 0.00 0.00 58 1021.9
20191016132010 61 121 3.0 8.0 0.00 0.00 0.00 58 1021.9
20191016131510 61 97 3.0 10.0 0.00 0.00 0.00 58 1022.0
20191016131010 61 105 4.0 10.0 0.00 0.00 0.00 58 1021.9
20191016130510 61 122 4.0 8.0 0.00 0.00 0.00 58 1022.0
20191016130010 61 126 5.0 11.0 0.00 0.00 0.00 58 1021.9
20191016125510 61 124 5.0 11.0 0.00 0.00 0.00 58 1021.9
20191016125010 61 116 5.0 11.0 0.00 0.00 0.00 59 1021.9
20191016124510 61 121 5.0 11.0 0.00 0.00 0.00 59 1021.9
20191016124010 61 111 5.0 11.0 0.00 0.00 0.00 58 1021.9
20191016123510 61 96 6.0 11.0 0.00 0.00 0.00 58 1021.9
20191016123010 61 106 7.0 15.0 0.00 0.00 0.00 57 1021.8
20191016122510 61 103 7.0 15.0 0.00 0.00 0.00 57 1021.8
20191016122010 61 104 7.0 13.0 0.00 0.00 0.00 57 1021.7
20191016121510 61 100 7.0 13.0 0.00 0.00 0.00 58 1021.6
20191016121010 62 79 6.0 10.0 0.00 0.00 0.00 58 1021.6
20191016120510 62 84 6.0 10.0 0.00 0.00 0.00 57 1021.6
20191016120010 62 91 5.0 10.0 0.00 0.00 0.00 57 1021.4
20191016115510 62 89 4.0 9.0 0.00 0.00 0.00 58 1021.4
20191016115010 62 94 3.0 8.0 0.00 0.00 0.00 58 1021.5
20191016114511 61 77 4.0 8.0 0.00 0.00 0.00 60 1021.3
20191016114010 61 54 3.0 8.0 0.00 0.00 0.00 61 1021.4
20191016113510 61 67 2.0 4.0 0.00 0.00 0.00 62 1021.5
20191016113010 60 76 2.0 5.0 0.00 0.00 0.00 63 1021.5
20191016112511 60 79 2.0 6.0 0.00 0.00 0.00 63 1021.5
20191016112010 60 68 1.0 6.0 0.00 0.00 0.00 64 1021.4
20191016111510 60 28 1.0 3.0 0.00 0.00 0.00 65 1021.5
20191016111010 60 36 1.0 2.0 0.00 0.00 0.00 66 1021.5
20191016110510 59 41 1.0 2.0 0.00 0.00 0.00 65 1021.6
20191016110010 59 47 1.0 2.0 0.00 0.00 0.00 65 1021.5
20191016105510 59 79 1.0 4.0 0.00 0.00 0.00 65 1021.5
20191016105010 59 132 2.0 4.0 0.00 0.00 0.00 65 1021.6
20191016104510 59 161 1.0 4.0 0.00 0.00 0.00 65 1021.5
20191016104010 58 106 1.0 4.0 0.00 0.00 0.00 66 1021.6
20191016103510 58 74 2.0 4.0 0.00 0.00 0.00 66 1021.6
20191016102510 58 161 1.0 4.0 0.00 0.00 0.00 67 1021.5
20191016102013 58 14 2.0 5.0 0.00 0.00 0.00 68 1021.6
20191016101510 57 27 1.0 5.0 0.00 0.00 0.00 68 1021.5
20191016101010 57 82 0.0 3.0 0.00 0.00 0.00 68 1021.6
20191016100511 56 46 1.0 4.0 0.00 0.00 0.00 69 1021.6
20191016100012 56 35 2.0 4.0 0.00 0.00 0.00 69 1021.7
20191016095510 55 154 1.0 3.0 0.00 0.00 0.00 69 1021.7
20191016095011 55 82 1.0 4.0 0.00 0.00 0.00 69 1021.8
20191016094510 55 65 1.0 4.0 0.00 0.00 0.00 70 1021.8
20191016094010 55 4 1.0 3.0 0.00 0.00 0.00 70 1021.7
20191016093510 54 31 1.0 3.0 0.00 0.00 0.00 71 1021.7
20191016093010 54 106 0.0 3.0 0.00 0.00 0.00 71 1021.7
20191016091513 54 95 1.0 3.0 0.00 0.00 0.00 75 1021.8
20191016091010 53 45 1.0 3.0 0.00 0.00 0.00 76 1021.8
20191016090519 53 34 1.0 2.0 0.00 0.00 0.00 76 1021.8
20191016090010 52 217 0.0 2.0 0.00 0.00 0.00 78 1021.7
20191016085510 52 93 0.0 2.0 0.00 0.00 0.00 78 1021.7
20191016085010 52 103 0.0 2.0 0.00 0.00 0.00 79 1021.7
20191016084511 52 90 1.0 3.0 0.00 0.00 0.00 79 1021.8
20191016084010 51 38 1.0 4.0 0.00 0.00 0.00 79 1021.8
20191016083510 51 353 1.0 4.0 0.00 0.00 0.00 80 1021.8
20191016083010 50 346 1.0 3.0 0.00 0.00 0.00 81 1021.9
20191016082510 50 3 1.0 3.0 0.00 0.00 0.00 81 1021.8
20191016082010 49 5 0.0 3.0 0.00 0.00 0.00 81 1021.9
20191016081510 49 284 0.0 3.0 0.00 0.00 0.00 81 1021.9
20191016081010 49 267 0.0 2.0 0.00 0.00 0.00 81 1021.8
20191016080510 49 270 0.0 2.0 0.00 0.00 0.00 81 1021.8
20191016080010 49 314 0.0 2.0 0.00 0.00 0.00 81 1021.9
20191016075510 49 342 1.0 3.0 0.00 0.00 0.00 81 1021.9
20191016075010 48 338 1.0 3.0 0.00 0.00 0.00 81 1022.0
20191016074510 48 332 1.0 3.0 0.00 0.00 0.00 81 1021.9
20191016074010 48 291 0.0 3.0 0.00 0.00 0.00 81 1022.1
20191016073510 48 239 1.0 2.0 0.00 0.00 0.00 81 1022.0
20191016073010 48 224 1.0 2.0 0.00 0.00 0.00 81 1022.0
20191016072519 47 226 0.0 2.0 0.00 0.00 0.00 81 1021.9
20191016072010 47 307 0.0 2.0 0.00 0.00 0.00 81 1021.9
20191016071509 47 251 0.0 2.0 0.00 0.00 0.00 81 1021.9
20191016071009 47 199 0.0 2.0 0.00 0.00 0.00 79 1022.0
20191016070519 47 233 0.0 2.0 0.00 0.00 0.00 79 1021.8
20191016065509 47 288 0.0 2.0 0.00 0.00 0.00 79 1021.9
20191016065010 47 306 1.0 2.0 0.00 0.00 0.00 79 1021.8
20191016064510 47 270 1.0 2.0 0.00 0.00 0.00 79 1021.8
20191016064010 47 261 0.0 2.0 0.00 0.00 0.00 79 1021.8
20191016063510 46 250 0.0 2.0 0.00 0.00 0.00 79 1021.8
20191016063019 46 252 0.0 2.0 0.00 0.00 0.00 79 1021.8
20191016062510 46 264 0.0 2.0 0.00 0.00 0.00 79 1021.7
20191016062010 46 236 0.0 2.0 0.00 0.00 0.00 79 1021.7
20191016061509 46 260 1.0 2.0 0.00 0.00 0.00 79 1021.8
20191016061010 46 271 1.0 2.0 0.00 0.00 0.00 79 1021.7
20191016060509 46 253 1.0 2.0 0.00 0.00 0.00 79 1021.6
20191016060009 46 235 1.0 2.0 0.00 0.00 0.00 79 1021.5
20191016055509 46 236 1.0 2.0 0.00 0.00 0.00 79 1021.5
20191016055009 46 227 1.0 3.0 0.00 0.00 0.00 79 1021.5
20191016054510 46 226 1.0 3.0 0.00 0.00 0.00 79 1021.5
20191016054010 46 209 0.0 3.0 0.00 0.00 0.00 79 1021.4
20191016053510 46 218 1.0 4.0 0.00 0.00 0.00 79 1021.3
20191016053010 46 238 2.0 4.0 0.00 0.00 0.00 79 1021.3
20191016052510 46 255 2.0 4.0 0.00 0.00 0.00 79 1021.2
20191016052010 46 255 1.0 3.0 0.00 0.00 0.00 79 1021.1
20191016051510 46 253 1.0 3.0 0.00 0.00 0.00 79 1021.1
20191016051010 46 241 1.0 4.0 0.00 0.00 0.00 79 1021.0
20191016050510 46 238 2.0 4.0 0.00 0.00 0.00 79 1021.2
20191016050010 46 237 2.0 4.0 0.00 0.00 0.00 79 1021.0
20191016045510 46 226 1.0 4.0 0.00 0.00 0.00 79 1021.1
20191016045010 46 221 1.0 3.0 0.00 0.00 0.00 79 1021.1
20191016044510 46 236 1.0 4.0 0.00 0.00 0.00 79 1021.0
20191016044010 45 252 1.0 4.0 0.00 0.00 0.00 79 1021.0
20191016043510 45 239 1.0 4.0 0.00 0.00 0.00 79 1021.0
20191016043009 45 221 1.0 4.0 0.00 0.00 0.00 79 1021.2
20191016042509 45 220 1.0 4.0 0.00 0.00 0.00 80 1021.2
20191016042009 45 229 2.0 4.0 0.00 0.00 0.00 80 1021.0